Preview of NWS' New Version of Forecast
This preview is not operational and should not be used for support decisions.

Regional Weather Roundup (RWR)

Issued by National Weather Service (NWS)

                            
000
ASUS45 KABQ 221710
RWRNM 
NEW MEXICO REGIONAL WEATHER ROUNDUP
NATIONAL WEATHER SERVICE ALBUQUERQUE NM
1100 AM MDT MON JUL 22 2019

NOTE: "FAIR" MEANS FEW OR NO CLOUDS BELOW 12,000 FEET AGL WITH NO
       SIGNIFICANT WEATHER OR OBSTRUCTIONS TO VISION.

      THIS PRODUCT IS RELEASED AS TWO VERSIONS.  ONE VERSION NEAR
      THE TOP OF THE HOUR CONTAINING PRELIMINARY DATA FROM ALBUQUERQUE
      AND OTHER STATIONS.  A FINAL VERSION WITH ADDITIONAL DATA IS 
      ISSUED ABOUT 10 MINUTES AFTER THE HOUR.
 
NMZ501-503-504-510>518-221800-
NORTHWEST PLATEAU/NORTHCENTRAL MOUNTAINS
  
CITY           SKY/WX    TMP DP  RH WIND       PRES   REMARKS
FARMINGTON     FAIR      85  46  25 SE9G23    30.28F                  
LOS ALAMOS       N/A     77  42  29 SW6       30.47S                  
SANTA FE       FAIR      81  46  29 SW7       30.40R                  
ANGEL FIRE       N/A     67  48  49 W5        30.58F                  

$$
NMZ402-403-502-505>509-221800-
WESTCENTRAL MOUNTAINS/SOUTHWEST MOUNTAINS
  
CITY           SKY/WX    TMP DP  RH WIND       PRES   REMARKS
GALLUP         FAIR      85  46  25 S14       30.35S                  
GRANTS         FAIR      79  46  31 SE20G31   30.42S                  
SILVER CITY    FAIR      84  48  28 SE16      30.30S                  

$$
NMZ407-409-411-412-221800-
SOUTHERN DESERTS
  
CITY           SKY/WX    TMP DP  RH WIND       PRES   REMARKS
DEMING         FAIR      85  52  32 SE20G28   30.23S                  
LAS CRUCES     FAIR      85  51  31 SE15G21   30.26R                  
ALAMOGORDO     FAIR      84  52  32 W8        30.23S                  
T OR C         FAIR      84  53  34 NE10      30.28R                  

$$
NMZ519>523-221800-
CENTRAL VALLEYS/CENTRAL HIGHLANDS
  
CITY           SKY/WX    TMP DP  RH WIND       PRES   REMARKS
ALBUQUERQUE    PTSUNNY   80  52  37 E16       30.34R                  
DOUBLE EAGLE   PTSUNNY   82  52  34 SE17      30.37S                  
MORIARTY ARPT  FAIR      78  53  41 E12G18    30.45S                  
CLINES CORNERS   N/A    N/A N/A N/A MISG        N/A  VSB              
BELEN          FAIR      84  47  27 S12G17    30.33S                  
SOCORRO        FAIR      82  50  32 E10G20    30.32F                  

$$
NMZ524>526-539-540-221800-
SOUTHCENTRAL MOUNTAINS
  
CITY           SKY/WX    TMP DP  RH WIND       PRES   REMARKS
RUIDOSO          N/A     66  55  68 SE18      30.49F                  

$$
NMZ527>531-221800-
NORTHEAST HIGHLANDS/NORTHEAST PLAINS
  
CITY           SKY/WX    TMP DP  RH WIND       PRES   REMARKS
LAS VEGAS      FAIR      72  53  51 NE13G18   30.49F                  
RATON          FAIR      72  52  49 SE3       30.45F                  
CLAYTON        FAIR      71  60  68 N18       30.37S                  

$$
NMZ532>537-221800-
EASTCENTRAL PLAINS
  
CITY           SKY/WX    TMP DP  RH WIND       PRES   REMARKS
SANTA ROSA     PTSUNNY   75  62  63 N8        30.37R                  
TUCUMCARI      CLOUDY    70  61  73 NE14      30.33R                  
CANNON AFB     CLOUDY    71  60  67 NE17      30.34R                  
CLOVIS AIRPORT FAIR      75  59  57 E18       30.34R                  

$$
NMZ028-029-538-221800-
SOUTHEAST PLAINS
  
CITY           SKY/WX    TMP DP  RH WIND       PRES   REMARKS
ROSWELL        CLOUDY    78  64  61 NE14      30.29R                  
ARTESIA        PTSUNNY   77  68  73 N16       30.28R                  
CARLSBAD       PTSUNNY   80  65  59 N15G28    30.22R                  
HOBBS          PTSUNNY   84  59  42 N23G30    30.23R                  


$$